Location: Newark
(7.0858°N, 171.3717°E)
Time: 16:05:50
(UTC+00:00)

Transit 2A - Pass Details

Date: 05 December 2020
Orbit: 598 x 960 km, 66.7° (Epoch: 20 January)

Event Time Altitude Azimuth Distance (km) Brightness Sun altitude
Rises 01:47:15 0° 162° (SSE) 3,562 9.7 54.3°
Reaches altitude 10° 01:51:06 10° 138° (SE) 2,660 9.0 53.8°
Maximum altitude 01:54:15 14° 108° (ESE) 2,381 8.6 53.3°
Drops below altitude 10° 01:57:25 10° 77° (ENE) 2,686 8.6 52.9°
Sets 02:01:18 0° 54° (NE) 3,621 9.1 52.3°
